Content
SEND FEEDBACK

Daily
Averages
Monthly
Summary
United States of America

UMATAC, GUAM


Home > North America > United States > Guam
Elevation: 190 feet     Latitude: 13 17N     Longitude: 144 40E

WEATHER
 
SELECT A DAY
Number of Records: 342,273;   Date Range: 1/1/95 - 8/30/14
 
SHARE

PRINT THIS DATA

[ ← Previous Day ]
WEATHER ALMANAC - JANUARY 8, 2014
[ Next Day → ]
[ °C ]   °F
Weather ElementAverageHighLow
Temperature79.4 °F84.2 °F (11:23 am)76.6 °F (6:58 am)
Dewpoint72.9 °F75.2 °F (12:38 pm)70.9 °F (4:58 am)
Humidity80.6 %90 % (3:58 am)70 % (11:03 am)
Barometer29.83 in29.88 in (8:28 am)29.78 in (1:58 pm)
Wind Speed14.2 mph18.4 mph (3:18 am)
Wind Gust21.9 mph (3:58 am)
Weather ElementAverage
Visibility10 mi
Wind DirectionENE (57.6 °)

Weather ElementTotal
Precipitation---
Cooling Degree Days15.4 (Base 65)
Growing Degree Days30.4 (Base 50)
Averaged from 62 records on January 8, 2014
WEATHER CONDITIONS BREAKOUT
WIND DIRECTION BREAKOUT
WEATHER BY HOUR - JANUARY 8, 2014
[ °C ]   °F
Local TimeTemperatureDewpointHumidityBarometerVisibilityWind DirectionWind SpeedGust SpeedPrecipitationEventsConditions
1:03 AM77.0 °F73.4 °F89 %29.85 in10.0 miNE (40°)13.8 mphMostly Cloudy
1:13 AM77.0 °F73.4 °F89 %29.86 in10.0 miNE (40°)16.1 mphMostly Cloudy
1:58 AM77.0 °F71.6 °F83 %29.81 in10.0 miNE (40°)15.0 mphMostly Cloudy
2:03 AM77.0 °F71.6 °F83 %29.84 in10.0 miNE (40°)16.1 mphMostly Cloudy
2:08 AM77.0 °F73.4 °F89 %29.84 in10.0 miNE (40°)13.8 mphMostly Cloudy
2:58 AM77.0 °F72.1 °F85 %29.81 in10.0 miNE (40°)16.1 mph20.7 mphPartly Cloudy
3:18 AM77.0 °F73.4 °F89 %29.83 in10.0 miNE (40°)18.4 mphMostly Cloudy
3:58 AM77.5 °F74.3 °F90 %29.81 in10.0 miNNE (30°)15.0 mph21.9 mphMostly Cloudy
4:18 AM77.0 °F71.6 °F83 %29.83 in10.0 miNE (50°)15.0 mphMostly Cloudy
4:23 AM77.0 °F73.4 °F89 %29.82 in10.0 miNE (50°)12.7 mphMostly Cloudy
4:28 AM77.0 °F73.4 °F89 %29.83 in10.0 miNE (40°)16.1 mph20.7 mphMostly Cloudy
4:38 AM77.0 °F71.6 °F83 %29.83 in10.0 miNE (50°)15.0 mph21.9 mphMostly Cloudy
4:43 AM77.0 °F71.6 °F83 %29.83 in10.0 miNE (40°)16.1 mphScattered Clouds
4:58 AM77.0 °F70.9 °F81 %29.81 in10.0 miNE (40°)15.0 mphPartly Cloudy
5:53 AM77.0 °F71.6 °F83 %29.83 in10.0 miNE (50°)16.1 mphMostly Cloudy
5:58 AM76.8 °F72.3 °F86 %29.81 in10.0 miNE (40°)16.1 mphMostly Cloudy
6:13 AM77.0 °F71.6 °F83 %29.83 in10.0 miNE (50°)15.0 mphScattered Clouds
6:58 AM76.6 °F72.7 °F87 %29.82 in10.0 miNE (40°)13.8 mphScattered Clouds
7:58 AM78.6 °F72.9 °F82 %29.84 in10.0 miNE (50°)13.8 mph18.4 mphScattered Clouds
8:28 AM78.8 °F73.4 °F83 %29.88 in10.0 miNE (50°)12.7 mph19.6 mphMostly Cloudy
8:43 AM80.6 °F73.4 °F79 %29.88 in10.0 miENE (60°)16.1 mphScattered Clouds
8:58 AM80.1 °F73.8 °F81 %29.86 in10.0 miNE (50°)16.1 mphMostly Cloudy
9:58 AM82.0 °F72.3 °F72 %29.86 in10.0 miNE (50°)15.0 mphScattered Clouds
10:54 AM82.4 °F73.4 °F74 %29.88 in10.0 miNE (50°)18.4 mphMostly Cloudy
10:58 AM82.2 °F72.5 °F72 %29.86 in10.0 miNE (50°)16.1 mphMostly Cloudy
11:03 AM82.4 °F71.6 °F70 %29.88 in10.0 miENE (60°)16.1 mphMostly Cloudy
11:23 AM84.2 °F73.4 °F70 %29.88 in10.0 miNE (50°)16.1 mphScattered Clouds
11:58 AM83.3 °F73.2 °F71 %29.83 in10.0 miNE (50°)15.0 mph19.6 mphPartly Cloudy
12:38 PM84.2 °F75.2 °F74 %29.85 in10.0 miENE (60°)11.5 mph17.3 mphMostly Cloudy
12:43 PM84.2 °F73.4 °F70 %29.84 in10.0 miNE (50°)15.0 mphMostly Cloudy
12:58 PM81.9 °F73.8 °F76 %29.81 in10.0 miENE (60°)11.5 mphMostly Cloudy
1:18 PM82.4 °F75.2 °F79 %29.83 in10.0 miENE (60°)12.7 mph19.6 mphMostly Cloudy
1:23 PM82.4 °F75.2 °F79 %29.83 in10.0 miNE (50°)15.0 mphMostly Cloudy
1:28 PM82.4 °F75.2 °F79 %29.82 in10.0 miENE (70°)12.7 mphMostly Cloudy
1:43 PM80.6 °F75.2 °F84 %29.82 in10.0 miEast (80°)10.4 mphMostly Cloudy
1:58 PM81.1 °F73.4 °F77 %29.78 in10.0 miENE (70°)12.7 mphScattered Clouds
2:03 PM80.6 °F73.4 °F79 %29.81 in10.0 miENE (60°)10.4 mphMostly Cloudy
2:08 PM80.6 °F75.2 °F84 %29.81 in10.0 miNE (50°)11.5 mphMostly Cloudy
2:43 PM80.6 °F73.4 °F79 %29.81 in10.0 miEast (80°)13.8 mphMostly Cloudy
2:53 PM80.6 °F73.4 °F79 %29.81 in10.0 miEast (80°)15.0 mphMostly Cloudy
2:58 PM81.3 °F73.0 °F76 %29.78 in10.0 miEast (80°)15.0 mphMostly Cloudy
3:13 PM80.6 °F71.6 °F74 %29.81 in10.0 miENE (70°)13.8 mphMostly Cloudy
3:18 PM80.6 °F71.6 °F74 %29.81 in10.0 miEast (80°)13.8 mphScattered Clouds
3:33 PM80.6 °F71.6 °F74 %29.81 in10.0 miENE (70°)13.8 mph19.6 mphMostly Cloudy
3:38 PM82.4 °F71.6 °F70 %29.81 in10.0 miENE (70°)13.8 mphScattered Clouds
3:58 PM81.0 °F71.6 °F73 %29.78 in10.0 miENE (70°)13.8 mph20.7 mphPartly Cloudy
4:58 PM79.9 °F71.6 °F76 %29.79 in10.0 miENE (70°)15.0 mph19.6 mphPartly Cloudy
5:58 PM78.3 °F71.1 °F78 %29.81 in10.0 miENE (60°)13.8 mph18.4 mphScattered Clouds
6:48 PM78.8 °F73.4 °F83 %29.85 in10.0 miENE (70°)11.5 mphMostly Cloudy
6:53 PM78.8 °F71.6 °F78 %29.85 in10.0 miENE (70°)11.5 mphMostly Cloudy
6:58 PM78.4 °F71.8 °F80 %29.82 in10.0 miENE (60°)12.7 mphScattered Clouds
7:58 PM78.1 °F72.3 °F82 %29.83 in10.0 miENE (70°)12.7 mphPartly Cloudy
8:58 PM78.1 °F72.5 °F83 %29.84 in10.0 miENE (70°)12.7 mphScattered Clouds
9:13 PM78.8 °F73.4 °F83 %29.88 in10.0 miENE (70°)15.0 mphMostly Cloudy
9:58 PM78.4 °F73.8 °F85 %29.87 in10.0 miENE (60°)12.7 mph18.4 mphMostly Cloudy
10:08 PM78.8 °F73.4 °F83 %29.87 in10.0 miENE (70°)12.7 mph19.6 mphScattered Clouds
10:58 PM78.3 °F73.2 °F84 %29.84 in10.0 miENE (70°)11.5 mphScattered Clouds
11:08 PM78.8 °F73.4 °F83 %29.87 in10.0 miENE (70°)12.7 mph18.4 mphMostly Cloudy
11:13 PM78.8 °F73.4 °F83 %29.87 in10.0 miENE (70°)16.1 mphScattered Clouds
11:23 PM77.0 °F73.4 °F89 %29.86 in10.0 miENE (60°)13.8 mphMostly Cloudy
11:33 PM77.0 °F73.4 °F89 %29.86 in10.0 miENE (70°)11.5 mphScattered Clouds
11:58 PM77.9 °F72.3 °F83 %29.82 in10.0 miENE (70°)16.1 mphPartly Cloudy
Hourly data recorded from PGUA, located miles away from Umatac, Guam







STORIES FROM OUR PARTNERS